Cosmos 1975 Rocket - Orbit

View from above orbital plane
View from above orbital plane
View from above satellite
View from above satellite

Ground track
Ground track

The orbit data is extracted from the following two-line orbital elements,

1 19574U 88093B   13140.11698747  .00000433  00000-0  51108-4 0   222
2 19574 082.5328 096.4998 0021280 347.3292 140.5852 14.82313070328775
Epoch (UTC): 20 May 2013 02:48:27
Eccentricity: 0.0021280
inclination: 82.5328°
perigee height: 607 km
apogee height: 637 km
right ascension of ascending node: 96.4998°
argument of perigee: 347.3292°
revolutions per day: 14.82313070
mean anomaly at epoch: 140.5852°
orbit number at epoch: 32877

The dashed part of the orbit path shows where the satellite is in the earth's shadow,  

Developed and maintained by Chris Peat, Heavens-Above GmbH. Please read the updated FAQ before sending e-mail. Imprint. DLR